Location: アルンシュタイン
(50.0000°N, 10.0000°E)
Time: 17:58:28
(UTC+02:00)

A-11 Canister half - Visible Passes

Search period start: 11 September 2024 00:00
Search period end: 21 September 2024 00:00
Orbit: 1523 x 1684 km, 47.3° (Epoch: 11 September)

Date Brightness Start Highest point End Pass type
(mag) Time Alt. Az. Time Alt. Az. Time Alt. Az.
11 Sep 9.3 20:19:38 10° W 20:29:24 69° SSW 20:39:09 11° ESE visible
11 Sep 9.9 22:24:42 10° WNW 22:33:33 38° SW 22:37:25 28° S visible
12 Sep 10.9 00:33:54 10° WSW 00:35:42 11° WSW 00:35:42 11° WSW visible
12 Sep 9.4 19:57:52 10° W 20:07:37 70° SSW 20:17:38 10° ESE visible
12 Sep 9.9 22:02:53 10° WNW 22:11:48 39° SW 22:16:45 25° S visible
13 Sep 10.9 00:11:20 10° WSW 00:14:40 12° WSW 00:15:02 12° SW visible
13 Sep 9.9 21:41:06 10° WNW 21:50:04 41° SW 21:56:08 21° SSE visible
13 Sep 10.8 23:49:00 10° W 23:52:59 13° WSW 23:54:25 13° SW visible
14 Sep 9.9 21:19:18 10° WNW 21:28:20 42° SW 21:35:34 17° SSE visible
14 Sep 10.8 23:26:47 10° W 23:31:19 14° SW 23:33:51 13° SW visible
15 Sep 9.9 20:57:30 10° WNW 21:06:36 43° SW 21:15:04 13° SSE visible
15 Sep 10.8 23:04:39 10° W 23:09:39 15° SW 23:13:22 12° SSW visible
16 Sep 9.9 20:35:43 10° WNW 20:44:51 45° SW 20:54:12 10° SE visible
16 Sep 10.8 22:42:35 10° W 22:47:57 16° SW 22:52:56 11° SSW visible
17 Sep 9.9 20:13:56 10° WNW 20:23:06 46° SSW 20:32:31 10° SE visible
17 Sep 10.9 22:20:33 10° W 22:26:17 17° SW 22:32:05 10° SSW visible
18 Sep 9.9 19:52:09 10° WNW 20:01:22 48° SSW 20:10:48 10° SE visible
18 Sep 10.9 21:58:34 10° W 22:04:36 18° SW 22:10:44 10° SSW visible
19 Sep 10.9 21:36:36 10° W 21:42:55 19° SW 21:49:20 10° S visible
20 Sep 10.9 21:14:39 10° W 21:21:13 20° SW 21:27:55 10° S visible
